Regional Weather Roundup
Issued by NWS

Home | Current Version | Previous Version | Text Only | Print | Product List | Glossary Off
Versions: 1 2 3 4 5 6 7 8 9 10 11 12 13 14 15 16 17 18 19 20 21 22 23 24 25 26 27 28 29 30 31 32 33 34 35 36 37 38 39 40 41 42 43 44 45 46 47 48 49 50

000
ASUS43 KMKX 270020
RWRWI

WISCONSIN REGIONAL WEATHER ROUNDUP
NATIONAL WEATHER SERVICE MILWAUKEE/SULLIVAN WI
600 PM CST SUN FEB 26 2017

NOTE: "FAIR" INDICATES FEW OR NO CLOUDS BELOW 12,000 FEET WITH NO
SIGNIFICANT WEATHER AND/OR OBSTRUCTIONS TO VISIBILITY.

WIZ001-002-006>008-014>016-023>028-270100-
NORTHWEST WISCONSIN

CITY           SKY/WX    TMP DP  RH WIND       PRES   REMARKS
SUPERIOR ARPT  CLEAR     21   3  47 W5        29.90R WCI  14
6HR MIN TEMP:  21; 6HR MAX TEMP:  26;

ASHLAND        CLEAR     22   5  48 W10       29.88R WCI  11
6HR MIN TEMP:  22; 6HR MAX TEMP:  31; 6HR PCP: TRACE;

HAYWARD        CLEAR     26   3  37 VRB3      29.86R
6HR MIN TEMP:  26; 6HR MAX TEMP:  33; 6HR PCP: TRACE;

SIREN          CLEAR     26   7  43 NW6       29.88R WCI  20
6HR MIN TEMP:  26; 6HR MAX TEMP:  33;

CUMBERLAND     CLEAR     27   7  43 NW9       29.86R WCI  17
RICE LAKE      CLEAR     29  10  44 NW7       29.87R WCI  22
6HR MIN TEMP:  29; 6HR MAX TEMP:  35;

CHETEK         CLEAR     28  13  53 CALM      29.86R
6HR MIN TEMP:  28; 6HR MAX TEMP:  35;

LADYSMITH      CLEAR     29  13  50 NW9       29.85R WCI  21
6HR MIN TEMP:  29; 6HR MAX TEMP:  34;

EAU CLAIRE     CLEAR     32  20  61 W6        29.85R WCI  26
6HR MIN TEMP:  30; 6HR MAX TEMP:  35;

MENOMONIE      CLEAR     32  15  49 W7        29.86R WCI  26
6HR MIN TEMP:  32; 6HR MAX TEMP:  38;

NEW RICHMOND   CLEAR     30  15  52 NW8       29.87R WCI  22
6HR MIN TEMP:  30; 6HR MAX TEMP:  40;

OSCEOLA        CLEAR     30  13  48 NW6       29.91R WCI  24
6HR MIN TEMP:  30; 6HR MAX TEMP:  39;

$$

WIZ003>005-009-010-017-018-270100-
NORTH CENTRAL WISCONSIN

CITY           SKY/WX    TMP DP  RH WIND       PRES   REMARKS
MANITOWISH WTR CLEAR     20  12  72 NW6       29.80R WCI  12
6HR MIN TEMP:  20; 6HR MAX TEMP:  30;

ARBOR VITAE    CLEAR     24  17  73 NW7         N/A  WCI  16
6HR MIN TEMP:  24; 6HR MAX TEMP:  32;

WOODRUFF       CLEAR     24  17  73 NW7         N/A  WCI  16
6HR MIN TEMP:  24; 6HR MAX TEMP:  32;

RHINELANDER    CLOUDY    28  20  71 W7        29.79R WCI  21
6HR MIN TEMP:  28; 6HR MAX TEMP:  32; 6HR PCP: TRACE;

EAGLE RIVER    CLEAR     23  14  67 NW8G16    29.79R WCI  14
6HR MIN TEMP:  23; 6HR MAX TEMP:  30;

LAND O LAKES   CLEAR     22  16  80 NW6       29.80R WCI  14
6HR MIN TEMP:  22; 6HR MAX TEMP:  32; 6HR PCP:  0.01;

PHILLIPS       PTCLDY    26  13  58 NW5       29.80R WCI  20
6HR MIN TEMP:  26; 6HR MAX TEMP:  31;

TOMAHAWK       MOCLDY    27  22  80 W3        29.81R
6HR MIN TEMP:  27; 6HR MAX TEMP:  33;

MEDFORD        LGT SNOW  28  25  86 NW8       29.81R WCI  20
6HR MIN TEMP:  28; 6HR MAX TEMP:  32;

MERRILL        NOT AVBL
$$

WIZ029-030-035-036-043>047-270100-
CENTRAL WISCONSIN

CITY           SKY/WX    TMP DP  RH WIND       PRES   REMARKS
WAUSAU         CLEAR     31  19  61 W8        29.81R WCI  23
6HR MIN TEMP:  31; 6HR MAX TEMP:  34; 6HR PCP: TRACE;

MOSINEE        PTCLDY    30  19  64 W10       29.84  WCI  21
MARSHFIELD     CLEAR     31  17  56 W9        29.82R WCI  23
6HR MIN TEMP:  31; 6HR MAX TEMP:  35;

STEVENS POINT  CLEAR     32  16  50 W8        29.84R WCI  25
6HR MIN TEMP:  32; 6HR MAX TEMP:  36;

WAUPACA        CLOUDY    39  25  56 SW15G21   29.84R WCI  31
6HR MIN TEMP:  38; 6HR MAX TEMP:  42;

WAUTOMA        PTCLDY    37  24  59 SW12      29.86R WCI  29
6HR MIN TEMP:  37; 6HR MAX TEMP:  40;

WISC RAPIDS    CLEAR     35  19  52 W12       29.86R WCI  27
6HR MIN TEMP:  35; 6HR MAX TEMP:  39;

CAMP DOUGLAS   CLEAR     35  23  61 SW13      29.87R WCI  27
6HR MIN TEMP:  35; 6HR MAX TEMP:  40;

$$

WIZ011>013-019>022-031-037>040-048>050-270100-
NORTHEAST WISCONSIN

CITY           SKY/WX    TMP DP  RH WIND       PRES   REMARKS
ANTIGO         CLOUDY    29  19  66 W14       29.80R WCI  19
6HR MIN TEMP:  29; 6HR MAX TEMP:  32;

SHAWANO        CLEAR     36  19  50 W6        29.84R WCI  31
6HR MIN TEMP:  37; 6HR MAX TEMP:  40;

OCONTO         PTCLDY    36  20  51 W12       29.82R WCI  28
6HR MIN TEMP:  33; 6HR MAX TEMP:  38;

STURGEON BAY   PTCLDY    36  21  54 W17G23    29.82R WCI  26
6HR MIN TEMP:  34; 6HR MAX TEMP:  37;

GREEN BAY      CLOUDY    38  24  57 W13       29.83R WCI  30
6HR MIN TEMP:  34; 6HR MAX TEMP:  41; 6HR PCP: TRACE;

MANITOWOC      PTCLDY    38  26  62 SW14      29.86R WCI  30
6HR MIN TEMP:  35; 6HR MAX TEMP:  39;

APPLETON       MOCLDY    37  21  52 SW9       29.82R WCI  31
CLINTONVILLE   CLEAR     36  18  48 W9        29.84R WCI  29
OSHKOSH        CLOUDY    37  24  59 SW9       29.85R WCI  30
6HR MIN TEMP:  34; 6HR MAX TEMP:  39;

$$

WIZ032>034-041-042-053>061-270100-
SOUTHWEST WISCONSIN

CITY           SKY/WX    TMP DP  RH WIND       PRES   REMARKS
LA CROSSE      CLEAR     34  23  64 SW10      29.91R WCI  26
6HR MIN TEMP:  34; 6HR MAX TEMP:  41;

SPARTA         CLEAR     35  20  54 W7        29.90R WCI  29
6HR MIN TEMP:  35; 6HR MAX TEMP:  40; 6HR PCP:  0.25;

VIROQUA        CLEAR     32  23  70 W10       29.90R WCI  24
6HR MIN TEMP:  32; 6HR MAX TEMP:  38;

BOSCOBEL       CLEAR     39  24  55 W6        29.94R WCI  35
6HR MIN TEMP:  39; 6HR MAX TEMP:  44;

PRAIRIE DU CHI CLEAR     35  26  69 W8        29.95R WCI  29
6HR MIN TEMP:  35; 6HR MAX TEMP:  43; 6HR PCP:  0.11;

PLATTEVILLE    CLEAR     37  25  60 W14       29.93R WCI  29
6HR MIN TEMP:  37; 6HR MAX TEMP:  43;

$$

WIZ056-057-062-063-064-067-068-270100-
SOUTH CENTRAL WISCONSIN

CITY           SKY/WX    TMP DP  RH WIND       PRES   REMARKS
REEDSBURG      CLEAR     35  24  62 W8        29.90R WCI  29
6HR MIN TEMP:  36; 6HR MAX TEMP:  39;

BARABOO/DELLS  CLEAR     37  21  53 W14       29.89R WCI  28
6HR MIN TEMP:  36; 6HR MAX TEMP:  40;

LONE ROCK      CLEAR     39  22  50 W16       29.92R WCI  30
6HR MIN TEMP:  37; 6HR MAX TEMP:  43;

MINERAL POINT  CLEAR     37  28  70 W8        29.91R WCI  31
MADISON        PTCLDY    39  22  50 SW6       29.90R WCI  35
6HR MIN TEMP:  36; 6HR MAX TEMP:  42;

MIDDLETON      CLEAR     39  25  56 W10G16    29.90R WCI  32
6HR MIN TEMP:  37; 6HR MAX TEMP:  43;

WATERTOWN      CLEAR     39  23  54 SW8       29.89R WCI  33
6HR MIN TEMP:  37; 6HR MAX TEMP:  42;

MONROE         CLEAR     37  25  60 W10       29.91R WCI  30
JANESVILLE     PTCLDY    43  21  42 W10       29.91R
$$

WIZ051-052-058>065-066-070>072-270100-
SOUTHEAST WISCONSIN

CITY           SKY/WX    TMP DP  RH WIND       PRES   REMARKS
MILWAUKEE      PTCLDY    43  22  43 SW9       29.91R
6HR MIN TEMP:  40; 6HR MAX TEMP:  45;

WAUKESHA       CLEAR     37  21  52 SW12      29.91R WCI  30
MILWAUKEE/TIMM CLEAR     39  19  45 SW12      29.91R WCI  32
RACINE         CLEAR     41  22  46 SW7       29.93R
6HR MIN TEMP:  41; 6HR MAX TEMP:  45;

KENOSHA        CLEAR     39  23  52 SW10      29.92R WCI  32
6HR MIN TEMP:  39; 6HR MAX TEMP:  45;

FOND DU LAC    CLEAR     37  24  59 SW7       29.87R WCI  32
6HR MIN TEMP:  35; 6HR MAX TEMP:  39;

SHEBOYGAN      CLEAR     37  25  61 SW14      29.88R WCI  28
6HR MIN TEMP:  35; 6HR MAX TEMP:  38;

WEST BEND      CLEAR     37  25  60 W8        29.88R WCI  31
JUNEAU         CLEAR     36  26  69 SW9       29.90R WCI  29
6HR MIN TEMP:  34; 6HR MAX TEMP:  38;

$$

LSZ147-162-270100-
LAKE SUPERIOR

STATION/POSITION TIME  TEMP    WIND        PRES    WAVE
                       AIR SEA DIR/SP/G            HT/PER
                 (UTC) (F)     (DEG/KT/KT) (MB)    (FT/S)
DEVILS ISLAND    0000   24     280/ 19/ 21 1012.4R
PORT WING        2340   24     270/  8/ 16 1012.2R
SAXON HARBOR     2330   26     270/  5/ 11 1011.2R
$$

LMZ867-665-643>646-270100-
LAKE MICHIGAN

STATION/POSITION TIME  TEMP    WIND        PRES    WAVE
                       AIR SEA DIR/SP/G            HT/PER
                 (UTC) (F)     (DEG/KT/KT) (MB)    (FT/S)
CHAMBERS ISLAND  2340   36     230/ 10/ 20 1008.8R
NORTHPORT PIER   2340   35     250/  7/ 12 1008.8R
SISTER BAY



USA.gov is the U.S. government's official web portal to all federal, state and local government web resources and services.